Starlink 32297

operational
NORAD ID: 61521 Int'l Des: 2024-183 Owner: SPXS Country: US Constellation: starlink
LEOCIRCULAR

Über Starlink 32297

Beschreibung wird geladen...

Live-Position

3D-Globus wird geladen...

Nächste Überflüge

Höhenverlauf

Altitude vs Time

uPlot chart will show altitude changes over time

Zweizeiliger Elementsatz

1 61521U 24183N 25304.61420862 -.00002123 00000-0 -59661-4 0 9997
2 61521 53.1621 21.7520 0001028 73.0903 287.0210 15.30160783 59890
Epoch: 31. Okt. 2025 • Age: 28 hours

Aktueller Status

Höhe 478.2 km
Geschwindigkeit 7.63 km/s
Subsatellitenpunkt 39.79°N, 85.46°E
Startdatum 15. Okt. 2024
Alter 1 years
Typ internet

Technische Details

Klassifizierung Payload
Masse 730.00 kg
Trockenmasse 700.00 kg
Gesamtmasse 730.00 kg
Länge 0.30 m
Durchmesser 4.10 m
Spannweite 29.00 m
Form Box + pan
Hersteller SPXS
Bus-Typ Starlink V2M
Phasenstatus In Orbit
Besitzer/Staat SPXS/US

Große Konstellationen

Loading constellations...